[[{"header":{"parameterUnit":"m.s-1","parameterCategory":1,"la1":30.2991,"la2":30.254,"lo1":-89.0895,"lo2":-89.0444,"dx":0.0017,"dy":0.0017,"nx":28,"ny":28,"refTime":"2022-12-12T03:00:00:Z","depth":0,"parameterNumber":2,"parameterNumberName":"U-component_of_WINDS"},"data":[0,0,0,0,0,0,0,0,0,0,0,0,0,0,0,0,0,0,0,0,0,0,0,0,0,0,0,0,0,0,0,0,0,0,0,0,0,0,0,0,0,0,0,0,0,0,0,0,0,0,0,0,0,0,0,0,0,0,-3.0233,-3.0234,0,-3.0312,-3.0313,-3.0314,-3.0293,-3.0291,-3.029,-3.0288,-3.0375,-3.0378,-3.0382,0,0,0,0,0,0,0,0,0,0,0,0,0,-3.007,-3.0073,-3.0233,-3.0234,-3.0235,-3.0312,-3.0313,-3.0314,-3.0293,-3.0291,-3.0289,-3.0288,-3.0373,-3.0378,-3.0382,0,0,0,0,0,0,0,0,0,0,0,0,0,-3.0144,-3.0074,-3.0233,-3.0234,-3.0234,-3.0312,-3.0313,-3.0314,-3.0294,-3.0291,-3.0289,-3.0287,-3.0372,-3.0377,-3.0383,-3.0466,0,0,-3.04,-3.0403,0,0,0,0,0,0,0,0,-3.014,-3.015,-3.0232,-3.0234,-3.0235,-3.029,-3.0287,-3.0365,-3.0294,-3.0271,-3.0288,-3.0285,-3.0349,-3.0356,-3.0376,-3.047,-3.0473,-3.0401,-3.0404,-3.0407,-3.0408,0,0,0,0,0,0,0,-3.0135,-3.0147,-3.0264,-3.0234,-3.0235,-3.0232,-3.024,-3.0302,-3.0323,-3.0273,-3.0272,-3.0281,-3.0349,-3.0371,-3.0378,-3.0475,-3.0401,-3.0406,-3.0409,-3.0411,-3.0643,-3.0646,0,0,0,0,0,0,-3.0128,-3.0143,-3.0262,-3.0267,-3.018,-3.0237,-3.0246,-3.0275,-3.0322,-3.0327,-3.0283,-3.028,-3.0363,-3.0372,-3.0381,-3.0483,-3.0407,-3.0412,-3.0415,-3.064,-3.0644,-3.0647,0,0,0,0,0,0,-3.0125,-3.0139,-3.0259,-3.0204,-3.0219,-3.0242,-3.0275,-3.0278,-3.0299,-3.0329,-3.0334,-3.0301,-3.0361,-3.0373,-3.0445,-3.0485,-3.0415,-3.042,-3.0637,-3.0641,-3.0645,-3.0685,0,0,0,0,0,0,-3.012,-3.0138,-3.0168,-3.0205,-3.0222,-3.0319,-3.0277,-3.0281,-3.0309,-3.0305,-3.0348,-3.0352,-3.036,-3.0437,-3.0451,-3.0492,-3.0424,-3.0634,-3.0639,-3.0644,-3.068,-3.069,-3.0698,0,0,0,0,0,-3.0114,-3.0176,-3.0169,-3.0184,-3.026,-3.0321,-3.0331,-3.0337,-3.0312,-3.0343,-3.0363,-3.0351,-3.0479,-3.0444,-3.046,-3.0503,-3.0631,-3.0637,-3.0643,-3.0676,-3.0688,-3.0698,0,0,0,0,0,0,-3.0144,-3.0181,-3.0174,-3.0249,-3.0282,-3.0318,-3.0357,-3.0349,-3.0392,-3.0387,-3.0394,-3.0404,-3.0478,-3.0498,-3.0459,-3.0587,-3.0552,-3.0561,-3.0571,-3.0583,-3.0591,-3.0585,-3.0429,0,0,0,0,0,-3.0159,-3.0204,-3.0235,-3.0299,-3.0316,-3.0334,-3.0361,-3.0363,-3.0398,-3.0412,-3.0437,-3.0473,-3.0522,-3.0553,-3.0599,-3.0683,-3.0694,-3.0721,-3.073,-3.0737,-3.0746,-3.0794,-3.0807,-3.0667,-3.0667,-3.0667,0,0,-3.0191,-3.0217,-3.0245,-3.0306,-3.0331,-3.038,-3.0346,-3.0398,-3.0435,-3.0421,-3.0489,-3.051,-3.0551,-3.0629,-3.0665,-3.0648,-3.0787,-3.0745,-3.0751,-3.0755,-3.0802,-3.0815,-3.0827,-3.0671,-3.067,-3.067,0,0,-3.0275,-3.0298,-3.0354,-3.0381,-3.042,-3.0432,-3.0446,-3.0483,-3.0496,-3.0565,-3.0556,-3.0601,-3.0684,-3.0714,-3.074,-3.0838,-3.0829,-3.0853,-3.09,-3.0947,-3.0958,-3.0968,-3.1004,-3.1017,-3.0861,-3.0861,-3.0861,0,-3.031,-3.0381,-3.0385,-3.0438,-3.0466,-3.0455,-3.0514,-3.054,-3.0593,-3.0614,-3.0594,-3.0699,-3.0725,-3.0812,-3.0836,-3.0857,-3.0875,-3.0848,-3.0956,-3.0966,-3.0975,-3.101,-3.1023,-3.0864,-3.0864,-3.0863,-3.0863,0,-3.0423,-3.0473,-3.0514,-3.0564,-3.0597,-3.0653,-3.0668,-3.0701,-3.0701,-3.0716,-3.0788,-3.082,-3.0874,-3.0895,-3.0895,-3.0982,-3.0971,-3.0953,-3.0918,-3.0991,-3.1024,-3.1037,-3.0868,-3.0867,-3.0866,-3.0865,0,0,-3.0525,-3.0578,-3.0594,-3.0617,-3.0661,-3.07,-3.0758,-3.0808,-3.0837,-3.0875,-3.0925,-3.0996,-3.0981,-3.1011,-3.1015,-3.1056,-3.1134,-3.1034,-3.1036,-3.1052,-3.1234,-3.1247,-3.1262,-3.1128,-3.1131,-3.1133,-3.1231,0,-3.0613,-3.0711,-3.0717,-3.0807,-3.0854,-3.0846,-3.0896,-3.0929,-3.0946,-3.099,-3.1009,-3.106,-3.1035,-3.1053,-3.1094,-3.1116,-3.117,-3.1109,-3.1176,-3.1179,-3.1166,-3.1278,-3.1292,-3.1382,-3.1243,-3.1245,-3.1247,0,-3.0727,-3.0768,-3.0861,-3.09,-3.0921,-3.0965,-3.1013,-3.1055,-3.1095,-3.1104,-3.1138,-3.1138,-3.1199,-3.1162,-3.1248,-3.1206,-3.1234,-3.125,-3.1253,-3.126,-3.1217,-3.1289,-3.1411,-3.1425,-3.1267,-3.1265,-3.1264,0,-3.0794,-3.0872,-3.0938,-3.0959,-3.1006,-3.1038,-3.1059,-3.1096,-3.1127,-3.117,-3.1191,-3.1241,-3.1269,-3.1309,-3.1324,-3.1295,-3.141,-3.1373,-3.1421,-3.1421,-3.1445,-3.1443,-3.1574,-3.1463,-3.1463,-3.1463,-3.1463,0,-3.0891,-3.0949,-3.0969,-3.101,-3.1076,-3.1085,-3.115,-3.117,-3.1204,-3.125,-3.1247,-3.1291,-3.1307,-3.1355,-3.1367,-3.1438,-3.145,-3.1461,-3.1464,-3.1461,-3.146,-3.148,-3.1474,-3.1466,-3.1466,-3.1465,-3.1464,0,-3.0975,-3.0991,-3.1063,-3.1102,-3.1114,-3.116,-3.1195,-3.1236,-3.1252,-3.1311,-3.1326,-3.1352,-3.1409,-3.1427,-3.1496,-3.1504,-3.1587,-3.1583,-3.1573,-3.1573,-3.162,-3.1616,-3.1768,-3.179,-3.1665,-3.1666,-3.1667,0,-3.1036,-3.108,-3.1124,-3.1154,-3.1177,-3.1226,-3.1257,-3.1269,-3.1303,-3.1352,-3.1388,-3.1443,-3.1488,-3.1579,-3.1606,-3.1659,-3.1658,-3.1708,-3.1666,-3.1663,-3.166,-3.1657,-3.1662,-3.1716,-3.1717,-3.1718,-3.1719,0,-3.1142,-3.1149,-3.1193,-3.1242,-3.1279,-3.1318,-3.1356,-3.1382,-3.1399,-3.1438,-3.1495,-3.1529,-3.16,-3.1656,-3.171,-3.1735,-3.1731,-3.1732,-3.1746,-3.1744,-3.1736,-3.1742,-3.1594,-3.1728,-3.1727,-3.1727,-3.1726,-3.1726,-3.1218,-3.1257,-3.1295,-3.1345,-3.1375,-3.1411,-3.1452,-3.1473,-3.152,-3.1577,-3.1582,-3.1644,-3.1686,-3.1758,-3.1786,-3.1836,-3.1822,-3.1843,-3.1848,-3.1853,-3.1857,-3.1728,-3.1846,-3.1846,-3.1846,-3.1846,-3.1846,0,-3.1324,-3.1348,-3.1395,-3.1448,-3.1489,-3.148,-3.1522,-3.1557,-3.1611,-3.1649,-3.1694,-3.1761,-3.1816,-3.1847,-3.1903,-3.1938,-3.1938,-3.1952,-3.195,-3.1956,-3.1865,-3.1848,-3.1951,-3.1951,-3.1951,-3.1951,-3.1951,-3.1951,-3.1385,-3.1452,-3.1463,-3.1546,-3.1571,-3.163,-3.1655,-3.1689,-3.172,-3.1794,-3.1839,-3.1859,-3.1896,-3.1955,-3.2006,-3.2014,-3.2035,-3.2051,-3.2058,-3.1973,-3.1962,-3.1952,-3.1935,-3.2056,-3.2056,-3.2145,-3.2145,-3.2146]},{"header":{"parameterUnit":"m.s-1","parameterCategory":1,"la1":30.2991,"la2":30.254,"lo1":-89.0895,"lo2":-89.0444,"dx":0.0017,"dy":0.0017,"nx":28,"ny":28,"refTime":"2022-12-12T03:00:00:Z","depth":0,"parameterNumber":3,"parameterNumberName":"V-component_of_WINDS"},"data":[0,0,0,0,0,0,0,0,0,0,0,0,0,0,0,0,0,0,0,0,0,0,0,0,0,0,0,0,0,0,0,0,0,0,0,0,0,0,0,0,0,0,0,0,0,0,0,0,0,0,0,0,0,0,0,0,0,0,1.7379,1.7379,0,1.7383,1.7383,1.7383,1.7385,1.7385,1.7385,1.7385,1.7386,1.7386,1.7386,0,0,0,0,0,0,0,0,0,0,0,0,0,1.7375,1.7375,1.7379,1.7379,1.7379,1.7383,1.7383,1.7383,1.7385,1.7385,1.7385,1.7385,1.7386,1.7386,1.7386,0,0,0,0,0,0,0,0,0,0,0,0,0,1.7377,1.7375,1.7379,1.7381,1.7381,1.7383,1.7383,1.7383,1.7385,1.7385,1.7385,1.7385,1.7386,1.7386,1.7386,1.7385,0,0,1.7386,1.7386,0,0,0,0,0,0,0,0,1.7377,1.7377,1.7381,1.7381,1.7381,1.7383,1.7381,1.7383,1.7385,1.7383,1.7385,1.7385,1.7385,1.7385,1.7385,1.7385,1.7385,1.7386,1.7386,1.7386,1.7386,0,0,0,0,0,0,0,1.7377,1.7377,1.7381,1.7381,1.7381,1.7381,1.7382,1.7381,1.7384,1.7384,1.7384,1.7384,1.7385,1.7385,1.7385,1.7385,1.7386,1.7386,1.7386,1.7386,1.7386,1.7386,0,0,0,0,0,0,1.7376,1.7377,1.738,1.7381,1.7379,1.7381,1.7382,1.7383,1.7384,1.7384,1.7384,1.7384,1.7385,1.7385,1.7385,1.7385,1.7386,1.7386,1.7385,1.7386,1.7386,1.7386,0,0,0,0,0,0,1.7376,1.7377,1.738,1.7379,1.7379,1.7382,1.7382,1.7383,1.7383,1.7384,1.7384,1.7384,1.7385,1.7385,1.7385,1.7385,1.7385,1.7385,1.7386,1.7386,1.7386,1.7385,0,0,0,0,0,0,1.7376,1.7377,1.7376,1.7379,1.7379,1.7381,1.7382,1.7383,1.7383,1.7384,1.7384,1.7384,1.7385,1.7385,1.7385,1.7385,1.7385,1.7386,1.7386,1.7386,1.7385,1.7385,1.7385,0,0,0,0,0,1.7376,1.7375,1.7376,1.7377,1.7379,1.7381,1.7381,1.7382,1.7383,1.7383,1.7384,1.7384,1.7386,1.7385,1.7385,1.7385,1.7386,1.7386,1.7386,1.7385,1.7385,1.7385,0,0,0,0,0,0,1.7371,1.7375,1.7377,1.7376,1.7378,1.7381,1.738,1.7382,1.7383,1.7383,1.7384,1.7384,1.7385,1.7385,1.7385,1.7385,1.7386,1.7386,1.7385,1.7385,1.7385,1.7385,1.7385,0,0,0,0,0,1.737,1.7371,1.7375,1.7374,1.7375,1.7378,1.7378,1.738,1.7381,1.7382,1.7383,1.7384,1.7385,1.7385,1.7385,1.7385,1.7386,1.7385,1.7385,1.7385,1.7385,1.7386,1.7386,1.7386,1.7386,1.7386,0,0,1.7367,1.737,1.737,1.7373,1.7375,1.7376,1.7378,1.7379,1.738,1.7382,1.7382,1.7383,1.7385,1.7385,1.7385,1.7385,1.7386,1.7385,1.7385,1.7385,1.7386,1.7386,1.7386,1.7386,1.7386,1.7386,0,0,1.7363,1.7365,1.7366,1.7368,1.7371,1.7374,1.7374,1.7377,1.7378,1.7379,1.7381,1.7382,1.7383,1.7384,1.7385,1.7385,1.7385,1.7385,1.7384,1.7386,1.7386,1.7386,1.7386,1.7386,1.7385,1.7385,1.7385,0,1.7359,1.7362,1.7366,1.7367,1.7369,1.7373,1.7373,1.7375,1.7378,1.7379,1.7379,1.7382,1.7383,1.7384,1.7385,1.7385,1.7385,1.7384,1.7386,1.7386,1.7386,1.7386,1.7386,1.7385,1.7385,1.7385,1.7385,0,1.7358,1.736,1.736,1.7364,1.7366,1.7367,1.7371,1.7372,1.7374,1.7376,1.7378,1.738,1.7382,1.7382,1.7383,1.7385,1.7385,1.7385,1.7386,1.7386,1.7386,1.7387,1.7385,1.7385,1.7385,1.7385,0,0,1.7348,1.7357,1.7357,1.736,1.7365,1.7366,1.7368,1.7371,1.7373,1.7375,1.7377,1.7379,1.738,1.7381,1.7383,1.7384,1.7385,1.7385,1.7385,1.7385,1.7387,1.7387,1.7387,1.7386,1.7386,1.7386,1.7388,0,1.7346,1.735,1.7354,1.7357,1.7359,1.7364,1.7366,1.7369,1.7372,1.7374,1.7377,1.7379,1.738,1.7381,1.7382,1.7385,1.7386,1.7385,1.7387,1.7388,1.7387,1.7387,1.7386,1.7387,1.7388,1.7388,1.7388,0,1.7342,1.7346,1.735,1.7357,1.7358,1.7359,1.7364,1.7366,1.737,1.7372,1.7375,1.7377,1.7379,1.738,1.7384,1.7383,1.7385,1.7387,1.7387,1.7387,1.7387,1.7387,1.7388,1.7388,1.7388,1.7388,1.7388,0,1.7336,1.7342,1.7346,1.7348,1.7356,1.7357,1.736,1.7364,1.7367,1.7371,1.7372,1.7376,1.7378,1.738,1.7384,1.7384,1.7388,1.7388,1.7389,1.7389,1.7389,1.7389,1.739,1.739,1.739,1.739,1.739,0,1.7332,1.7334,1.7343,1.7345,1.7348,1.7354,1.7356,1.7359,1.7364,1.7367,1.7371,1.7373,1.7378,1.7381,1.7383,1.7387,1.7387,1.7389,1.739,1.7389,1.7388,1.7389,1.7389,1.739,1.739,1.739,1.739,0,1.7325,1.7331,1.7335,1.7343,1.7346,1.7347,1.7354,1.7356,1.736,1.7364,1.7365,1.7371,1.7375,1.7379,1.7384,1.7386,1.7389,1.739,1.7388,1.7388,1.7389,1.7389,1.739,1.7391,1.7391,1.7391,1.7391,0,1.7322,1.7324,1.7333,1.7336,1.734,1.7344,1.7347,1.7353,1.7356,1.7363,1.7364,1.7369,1.7373,1.7379,1.7384,1.7388,1.7389,1.7389,1.739,1.7389,1.739,1.7389,1.739,1.7389,1.7389,1.7389,1.7389,0,1.7316,1.732,1.7325,1.7331,1.7335,1.734,1.7345,1.7347,1.7355,1.7358,1.7363,1.7367,1.7373,1.7378,1.7383,1.7386,1.7389,1.7389,1.739,1.7388,1.7387,1.7388,1.7388,1.7389,1.7389,1.7389,1.7389,1.7389,1.7311,1.7314,1.7321,1.7327,1.7332,1.7338,1.7341,1.7346,1.7351,1.7357,1.7361,1.7366,1.7372,1.738,1.7383,1.7387,1.7388,1.7388,1.7389,1.7389,1.7389,1.7387,1.7388,1.7388,1.7388,1.7388,1.7388,0,1.7306,1.7312,1.7317,1.7325,1.733,1.7334,1.7341,1.7344,1.7349,1.7355,1.736,1.7367,1.7372,1.7378,1.7384,1.7386,1.7388,1.7387,1.7387,1.7388,1.7387,1.7387,1.7386,1.7386,1.7386,1.7386,1.7386,1.7386,1.7303,1.7309,1.7314,1.7322,1.7328,1.7334,1.7338,1.7343,1.7348,1.7356,1.7361,1.7365,1.7371,1.7378,1.7383,1.7385,1.7387,1.7386,1.7388,1.7388,1.7388,1.7388,1.7387,1.7387,1.7387,1.7389,1.7389,1.7389]}]]